Voltar ao catálogo

TRANSIT 2A

AtivoNavegaçãoLEO
NORAD 45·PAYLOAD·🇺🇸 United States

Lançado Jun 22, 1960 de Cape Canaveral Space Force Station

Loading…

Próximas Passagens (próximas 24 horas)

TLE

AtualizadoSource: Space-Track

Época: Sep 10, 2026, 19:51 UTC

1 00045U 60007A   26253.82752483  .00000187  00000-0  72359-4 0  9995
2 00045  66.6931 133.6919 0240850  96.8450 266.0116 14.36020938392344

Acompanhe TRANSIT 2A em tempo real com AllMySat

Download on the App Store